Location: Beekmeers
(50.8953°N, 3.6968°E)
Time: 21:08:33
(UTC+00:00)

H-2A R/B - Pass Details

Date: 23 May 2024
Orbit: 553 x 572 km, 98.1° (Epoch: 16 June)

Event Time Altitude Azimuth Distance (km) Brightness Sun altitude
Rises 02:10:43 0° 10° (N) 2,761 8.2 -11.3°
Reaches altitude 10° 02:12:55 10° 4° (N) 1,857 7.0 -11.1°
Maximum altitude 02:16:46 47° 291° (WNW) 741 3.8 -10.8°
Enters shadow 02:19:51 15° 220° (SW) 1,541 4.9 -10.5°
